Location: Newark
(51.3000°N, 178.2000°W)
Time: 01:30:37
(UTC+00:00)

ISS - Pass Details

Date: 15 May 2021
Orbit: 417 x 422 km, 51.6° (Epoch: 15 June)

Event Time Altitude Azimuth Distance (km) Brightness Sun altitude
Rises 10:48:06 0° 254° (WSW) 2,364 0.1 -18.5°
Reaches altitude 10° 10:50:12 10° 254° (WSW) 1,502 -1.0 -18.5°
Maximum altitude 10:53:34 80° 166° (SSE) 432 -3.9 -18.7°
Drops below altitude 10° 10:56:57 10° 80° (E) 1,508 -1.0 -18.8°
Sets 10:59:04 0° 80° (E) 2,375 0.1 -18.9°
